Weather History for Fort Wayne, IN

Change the Weather History Date:

Monday, April 30, 2012

  Actual Average Record
Temperature  
Mean Temperature 63 °F 55 °F  
Max Temperature 80 °F 67 °F 89 °F (1899)
Min Temperature 46 °F 44 °F 29 °F (2008)
Degree Days  
Heating Degree Days 2 10  
Month to date heating degree days 412 459  
Since 1 July heating degree days 4801 5882  
Cooling Degree Days 0 0  
Month to date cooling degree days 5 8  
Year to date cooling degree days 32 8  
Growing Degree Days 13 (Base 50)    
Moisture  
Dew Point 52 °F    
Average Humidity 68    
Maximum Humidity 100    
Minimum Humidity 35    
Precipitation  
Precipitation 0.45 in 0.11 in 1.66 in (1909)
Month to date precipitation 1.29 3.52  
Year to date precipitation 9.29 10.53  
Snow  
Snow 0.00 in 0.00 in T in (1996)
Month to date snowfall T 1.0  
Since 1 July snowfall 32.2 33.5  
Snow Depth 0.00 in    
Sea Level Pressure  
Sea Level Pressure 29.97 in    
Wind  
Wind Speed 9 mph (WSW)    
Max Wind Speed 22 mph    
Max Gust Speed 29 mph    
Visibility 8 miles    
Events Rain , Thunderstorm    
T = Trace of Precipitation, MM = Missing Value Source: NWS Daily Summary

Daily Weather History Graph

Daily Weather History Graph

Search for Another Location

Airport:

Trip Planner

Search our weather history database for the weather conditions in past years. The results will help you decide how hot, cold, wet, or windy it might be!

Date:

Astronomy

Apr. 30, 2012 Rise Set
Actual Time 6:39 AM EDT 8:36 PM EDT
Civil Twilight 6:09 AM EDT 9:06 PM EDT
Nautical Twilight 5:33 AM EDT 9:43 PM EDT
Astronomical Twilight 4:54 AM EDT 10:22 PM EDT
Moon 2:30 PM EDT 3:06 AM EDT
Length of Visible Light 14h 57m
Length of Day
13h 57m
Waxing Gibbous, 63% of the Moon is Illuminated
Apr 30
Waxing Gibbous
May 5
Full
May 12
Last Quarter
May 20
New
May 28
First Quarter

Hourly Weather History & Observations

Time (EDT) Temp. Windchill Dew Point Humidity Pressure Visibility Wind Dir Wind Speed Gust Speed Precip Events Conditions
12:54 AM 51.1 °F - 25.0 °F 36% 30.14 in 10.0 mi East 10.4 mph - N/A   Mostly Cloudy
1:54 AM 50.0 °F - 26.1 °F 39% 30.12 in 10.0 mi East 9.2 mph - N/A   Mostly Cloudy
2:54 AM 48.9 °F - 28.0 °F 44% 30.08 in 10.0 mi East 9.2 mph - N/A   Overcast
3:54 AM 48.0 °F - 33.1 °F 56% 30.07 in 10.0 mi ENE 11.5 mph - 0.00 in Rain Light Rain
4:54 AM 48.0 °F - 35.1 °F 61% 30.05 in 10.0 mi East 10.4 mph - 0.00 in Rain Light Rain
5:54 AM 48.0 °F - 35.1 °F 61% 30.04 in 10.0 mi East 9.2 mph - 0.00 in   Overcast
6:54 AM 46.0 °F 41.4 °F 36.0 °F 68% 30.03 in 10.0 mi ENE 9.2 mph - N/A   Mostly Cloudy
7:54 AM 48.9 °F - 37.9 °F 66% 30.04 in 10.0 mi ENE 4.6 mph - N/A   Overcast
8:54 AM 53.1 °F - 39.9 °F 61% 30.02 in 10.0 mi ESE 6.9 mph - N/A   Overcast
9:25 AM 55.4 °F - 41.0 °F 58% 30.03 in 10.0 mi SE 4.6 mph - N/A   Overcast
9:32 AM 55.4 °F - 42.8 °F 63% 30.03 in 10.0 mi South 4.6 mph - N/A   Overcast
9:54 AM 57.9 °F - 45.0 °F 62% 30.01 in 10.0 mi SSE 4.6 mph - N/A   Overcast
10:54 AM 70.0 °F - 59.0 °F 68% 29.96 in 10.0 mi SSW 10.4 mph - N/A   Mostly Cloudy
11:54 AM 73.9 °F - 57.9 °F 57% 29.95 in 10.0 mi SW 15.0 mph 20.7 mph N/A   Mostly Cloudy
12:54 PM 77.0 °F - 57.0 °F 50% 29.94 in 10.0 mi SW 17.3 mph 23.0 mph N/A   Mostly Cloudy
1:54 PM 78.1 °F - 55.9 °F 46% 29.92 in 10.0 mi WSW 11.5 mph - N/A   Overcast
2:54 PM 80.1 °F - 57.0 °F 45% 29.90 in 10.0 mi WSW 12.7 mph - N/A   Mostly Cloudy
3:54 PM 70.0 °F - 60.1 °F 71% 29.88 in 10.0 mi NW 15.0 mph 26.5 mph N/A   Overcast
4:01 PM 68.0 °F - 60.8 °F 78% 29.89 in 10.0 mi NW 8.1 mph - N/A   Overcast
4:54 PM 66.9 °F - 63.0 °F 87% 29.89 in 8.0 mi NNW 4.6 mph - 0.00 in   Overcast
5:20 PM 66.2 °F - 62.6 °F 88% 29.90 in 7.0 mi Calm Calm - N/A Thunderstorm Thunderstorm
5:36 PM 66.2 °F - 62.6 °F 88% 29.90 in 1.8 mi NW 5.8 mph - 0.01 in Rain , Thunderstorm Thunderstorms and Rain
5:54 PM 64.0 °F - 62.1 °F 93% 29.87 in 2.5 mi NW 20.7 mph 28.8 mph 0.09 in Rain , Thunderstorm Thunderstorms and Rain
6:02 PM 62.6 °F - 62.6 °F 100% 29.90 in 1.5 mi WNW 13.8 mph 28.8 mph 0.04 in Rain , Thunderstorm Heavy Thunderstorms and Rain
6:16 PM 62.6 °F - 60.8 °F 94% 29.92 in 2.0 mi WNW 8.1 mph 17.3 mph 0.12 in Rain , Thunderstorm Heavy Thunderstorms and Rain
6:31 PM 62.6 °F - 60.8 °F 94% 29.92 in 4.0 mi NW 5.8 mph - 0.20 in Rain , Thunderstorm Thunderstorms and Rain
6:45 PM 62.6 °F - 60.8 °F 94% 29.91 in 3.0 mi NW 4.6 mph - 0.28 in Rain Light Rain
6:54 PM 62.1 °F - 61.0 °F 96% 29.92 in 4.0 mi NW 4.6 mph - 0.33 in Rain Rain
7:54 PM 62.1 °F - 61.0 °F 96% 29.91 in 9.0 mi South 5.8 mph - 0.02 in Rain Light Rain
8:54 PM 61.0 °F - 61.0 °F 100% 29.92 in 7.0 mi SSW 4.6 mph - 0.01 in   Mostly Cloudy
9:54 PM 60.1 °F - 60.1 °F 100% 29.93 in 5.0 mi SW 5.8 mph - N/A   Mostly Cloudy
10:48 PM 60.8 °F - 60.8 °F 100% 29.94 in 4.0 mi SW 5.8 mph - N/A   Overcast
10:54 PM 61.0 °F - 60.1 °F 97% 29.93 in 4.0 mi SW 5.8 mph - N/A   Overcast
11:14 PM 60.8 °F - 60.8 °F 100% 29.94 in 5.0 mi SSW 8.1 mph - N/A   Overcast
11:27 PM 60.8 °F - 60.8 °F 100% 29.94 in 6.0 mi SW 6.9 mph - N/A   Overcast
11:46 PM 60.8 °F - 60.8 °F 100% 29.94 in 6.0 mi WSW 6.9 mph - N/A   Overcast
11:54 PM 61.0 °F - 61.0 °F 100% 29.93 in 6.0 mi West 6.9 mph - N/A   Overcast